Showing default

GALAXY 14, 28790

Orbit data source: Space-Track

GALAXY 14, 28790 is a payload satellite owned by Panamsat (US) in GEO that was launched on Sat, 13 Aug 2005 UTC via a SOYUZ-FG launch vehicle from the Tyuratam Missile And Space Complex (TTMTR). Payload-class satellites include a variety of spacecraft equipped with specific instruments for various scientific and technological missions. These include communications satellites like Starlink; space stations such as the ISS; scientific satellites like the Hubble; Earth observation satellites from companies like Planet Labs, Umbra, and HawkEye 360; GPS; miniature CubeSats for education and research; and military/defense satellites.

Not visible in the next 10 days
Identifier
28790, 2005-030A
Orbit
GEO
Country
Flag of USUS
Related business
Manufacturer
OSC
Mission
Non-operational Commercial Communications
Bus & Motor
OSC STAR 2, IHI LAE
Mass
2,087 kg wet, ~850 kg dry
Launch date (UTC)
2005-08-13 (20 years ago)
Launch vehicle
SOYUZ-FG
Launch site
Tyuratam Missile And Space Complex (TTMTR)
Object type
Payload
Rocket body
Debris
Shape & HBR
Box + 2 Pan, 6.3 m
Radar Cross Section
13.542 m², Large (>1 m²)

Expand to show TLE details & history
Last TLE update: 8 hours ago

TLE from 8 hours ago
0 GALAXY 14
1 28790U 05030A   25354.20577269  .00000091  00000-0  00000-0 0  9991
2 28790   4.5660  77.2666 0001953 269.9132 233.5262  0.98912574 74451
Epoch: 2025-12-20T04:56Z
TLE epoch observation values (Epoch: 2025-12-20T04:56:18.760Z)
Latitude
2.70591°
Longitude
57.65891°
Altitude
36,176.086 km
Speed
3.06 km/s
True Right ascension
14h 43m 05s
True Declination
2° 42' 12"
Sunlit
Object was in daylight at epoch
Visualization orbit readout
Latitude
Unknown
Longitude
Unknown
Altitude
Unknown
Speed
Unknown
Apparent Right ascension
Unknown
Apparent Declination
Unknown
Sunlit
N/A
Visualization observer readout
Local Sidereal Time
12:04:22
Azimuth
Unknown
Elevation
Unknown
Doppler factor
Unknown
Orbital elements
Apogee altitude
36,181.349 km
Perigee altitude
36,164.729 km
Semi-major axis
42,551.176 km
Eccentricity
0.0002
Inclination
4.566°
RAAN
77.2666°
Arg. of periapsis
269.9132°
True anomaly
233.50821°
Mean anomaly
233.5262°
Eccentric anomaly
233.5172°
Mean motion
0.24727 °/min
Orbital period
1,455.88 mins
BSTAR
0
Loading maneuver chart data...
Computing Atmospheric mass density...
Loading historical data...
Loading historical data...
Loading historical data...
Loading historical data...
Loading historical data...
Loading historical data...
Loading historical data...
Other satellites on launch #30 in the year 2005 (2005-08-13 UTC)

Documentation

Showing up to 5 results
|